Regional Weather Roundup
Issued by NWS

Home | Current Version | Previous Version | Text Only | Print | Product List | Glossary Off
Versions: 1 2 3 4 5 6 7 8 9 10 11 12 13 14 15 16 17 18 19 20 21 22 23 24 25 26 27

000
ASUS45 KSLC 281810
RWRUT

UTAH REGIONAL WEATHER ROUNDUP
NATIONAL WEATHER SERVICE SALT LAKE CITY UT
1200 PM MDT FRI APR 28 2017

UTZ001>011-023>025-281900-

NORTHERN UTAH

CITY           SKY/WX    TMP DP  RH WIND       PRES   REMARKS
BRIGHAM CITY   CLOUDY    40  31  69 N23       29.92S WCI  30
HILL AFB       LGT SNOW  36  30  79 N6        29.91S WCI  31
LOGAN          LGT SNOW  37  32  82 N7        29.92S WCI  32
OGDEN          CLOUDY    37  31  78 NW10      29.92R WCI  30
SALT LAKE CITY CLOUDY    39  35  86 N10       29.92S FOG     WCI  32
TOOELE VALLEY  CLOUDY    37  32  81 N7        29.95S WCI  32
WENDOVER       NOT AVBL
HEBER CITY     CLOUDY    36  25  64 NE3       29.85R
WEST JORDAN    CLOUDY    37  37 100 NW15      29.93S VSB 3/4 WCI  28

$$

UTZ011>015-024>027-281900-

CENTRAL/NORTHEAST UTAH

CITY           SKY/WX    TMP DP  RH WIND       PRES   REMARKS
PROVO AIRPORT  PTSUNNY   39  30  70 NW16G23   29.92R WCI  30
MOAB/CANYONLAN MOSUNNY   49  12  22 W16G22    29.75F
DELTA          PTSUNNY   43  18  36 NW20G31   29.92S
PRICE          CLOUDY    42  15  33 NW17G24   29.78S
ROOSEVELT      CLOUDY    41  23  48 W5G16     29.82R
VERNAL         CLOUDY    43  19  38 VRB3      29.78R

$$

UTZ013>016-019>022-027-281900-

SOUTHERN UTAH

CITY           SKY/WX    TMP DP  RH WIND       PRES   REMARKS
BRYCE CANYON   MOSUNNY   35  11  36 NW17G29   29.83S WCI  25
CEDAR CITY     CLOUDY    42  17  36 N13G23    29.88R
MILFORD        MOSUNNY   41  29  62 NE22G28   29.92R
ST GEORGE      CLOUDY    58  21  24 NE12      29.87
HANKSVILLE     MOSUNNY   50   9  18 NW10G17   29.81S
BLANDING       MOSUNNY   42  24  47 S7        29.82F

$$

REGIONAL REPORTS     COLORADO/ARIZONA

CITY           SKY/WX    TMP DP  RH WIND       PRES   REMARKS
CRAIG, CO      CLOUDY    40  20  44 W8        29.75S WCI  34
GRAND JUNCTION SUNNY     50  15  24 NW15G21   29.74F
RIFLE, CO      PTSUNNY   45  21  38 N8G17     29.74S
MONTROSE, CO   CLOUDY    45  12  26 CALM      29.75S
CORTEZ, CO     CLOUDY    45  19  35 SW15      29.75S
COLORADO CITY    N/A     54  10  17 NW14G26   29.88S
PAGE, AZ       SUNNY     55   7  14 NW12G20   29.79F
GRAND CANYON   SUNNY     45   2  17 VRB7G24   29.82R
KINGMAN, AZ    SUNNY     62  12  14 N22G35    29.86S
FLAGSTAFF, AZ  MOSUNNY   48   8  19 W10G25    29.82S

$$

REGIONAL REPORTS    NEVADA/IDAHO/WYOMING

CITY           SKY/WX    TMP DP  RH WIND       PRES   REMARKS
LAS VEGAS, NV  MOSUNNY   65   7  10 N26G33    29.87R
ELY, NY        PTSUNNY   37  25  61 NE16G23   29.96S WCI  28
ELKO, NV       CLOUDY    41  20  43 NW10      30.03R
POCATELLO, ID  CLOUDY    41  33  73 SW12      29.96S
BURLEY, ID     MOSUNNY   44  28  53 W15G22    29.98S
EVANSTON, WY   LGT SNOW  29  25  85 W9        29.82R FOG     WCI  20
ROCK SPRINGS,  LGT SNOW  31  25  78 W15       29.78R VSB 3/4 WCI  20
KEMMERER, WY     N/A     32  27  80 NW15G22   29.79R WCI  22

$$




USA.gov is the U.S. government's official web portal to all federal, state and local government web resources and services.